User: anonymous   Login
Location: Unspecified
(0.0000°N, 0.0000°E)
Time: 20:44:37
(UTC+00:00)
Language:

NORSAT 2 - Orbit

View from above orbital plane
View from above orbital plane
View from above satellite
View from above satellite

Ground track
Ground track

The orbit is defined by the following mean orbital elements,

1 42828U          26150.40501794 +.00000000 +00000-0 +64810-3 0 00003
2 42828  97.4025 324.1340 0011074 112.5064 247.7346 15.21528649    08
Epoch (UTC): 30 May 2026 09:43:13
Eccentricity: 0.0011074
inclination: 97.4025°
perigee height: 494 km
apogee height: 509 km
right ascension of ascending node: 324.1340°
argument of perigee: 112.5064°
revolutions per day: 15.21528649
mean anomaly at epoch: 247.7346°

The dashed part of the orbit path shows where the satellite is in the earth's shadow,  

DLR